Flag for U.S.A. Weather past 2 weeks in Fort Bragg, California, U.S.A.

Now
71 °F

Clear.


Feels Like: 77 °F
Forecast: 58 / 76 °F
Wind: No wind

Location: Ukiah Municipal

Current Time: Jul 27, 2015 at 11:52:51 PM

Latest Report: Jul 27, 2015 at 10:56 PM


Visibility: 10 mi

Pressure: 29.89 "Hg

Humidity: 41%

Dew point: 46 °F

Location of Fort BraggLocation

Historic Weather in Fort Bragg — Graph

°F

Fort Bragg temperature yesterday

Maximum temperature yesterday: 90 °F (at 1:56 PM)
Minimum temperature yesterday: 56 °F (at 4:56 AM)
Average temperature yesterday: 72 °F

Past Weeks' High & Low Weather Summary

 TemperatureHumidityPressure
High99 °F (Jul 16, 2:56 PM)93% (Jul 17, 5:56 AM)30.08 "Hg (Jul 17, 5:56 AM)
Low51 °F (Jul 24, 5:56 AM)12% (Jul 22, 1:56 PM)29.72 "Hg (Jul 17, 2:56 PM)
Average74 °F50%29.89 "Hg
* Reported Jul 12 10:56 PM — Jul 27 10:56 PM, Fort Bragg, Weather by CustomWeather, © 2015

Note: Actual official high and low records may vary slightly from our data, if they occured in-between our weather recording intervals... More about our weather records

Advertising

Fort Bragg weather history for previous 24 hours

 ConditionsComfort  
Time TempWeatherWind HumidityBarometerVisibility
10:56 PM
Mon, Jul 27
71 °FClear.No wind41%29.89 "Hg10 mi
9:56 PM76 °FClear.No wind31%29.89 "Hg10 mi
8:56 PM79 °FSunny.No wind27%29.88 "Hg10 mi
7:56 PM85 °FSunny.6 mph21%29.88 "Hg10 mi
6:56 PM89 °FSunny.3 mph18%29.86 "Hg10 mi
5:56 PM91 °FSunny.5 mph17%29.86 "Hg10 mi
4:56 PM93 °FSunny.10 mph15%29.85 "Hg10 mi
3:56 PM95 °FSunny.12 mph17%29.85 "Hg10 mi
2:56 PM95 °FSunny.10 mph15%29.86 "Hg10 mi
1:56 PM94 °FSunny.6 mph15%29.88 "Hg10 mi
12:56 PM90 °FSunny.6 mph19%29.90 "Hg10 mi
11:56 AM85 °FSunny.6 mph30%29.92 "Hg10 mi
10:56 AM78 °FSunny.6 mph37%29.94 "Hg10 mi
9:56 AM73 °FSunny.No wind43%29.96 "Hg10 mi
8:56 AM66 °FSunny.3 mph56%29.98 "Hg10 mi
7:56 AM60 °FSunny.3 mph67%29.98 "Hg10 mi
6:56 AM58 °FClear.No wind70%29.97 "Hg10 mi
5:56 AM57 °FClear.No wind69%29.96 "Hg10 mi
4:56 AM60 °FClear.No wind65%29.96 "Hg10 mi
3:56 AM61 °FClear.5 mph62%29.95 "Hg10 mi
2:56 AM64 °FClear.10 mph56%29.94 "Hg10 mi
1:56 AM64 °FClear.10 mph54%29.93 "Hg10 mi
12:56 AM67 °FClear.9 mph49%29.93 "Hg10 mi
11:56 PM
Sun, Jul 26
68 °FClear.12 mph45%29.92 "Hg10 mi
Weather by CustomWeather, © 2015

See weather overviewHow to use our weather pages